When you browse on this site, cookies collect data to enhance your experience and personalize the content and advertising you see.
Visit our Privacy Policy to learn more. By continuing to use the site, you agree to this use of cookies and data.

Hourly Weather Sasyne

Today, 13 August, Thursday

Time Temperature Precipitation Wind Pressure Humidity
00:00 +11°C° 0 mm 3 mps 748 mmHg 84%
01:00 +11°C° 0 mm 3 mps 749 mmHg 86%
02:00 +11°C° 0 mm 3 mps 749 mmHg 88%
03:00 +10°C° 0 mm 3 mps 749 mmHg 89%
04:00 +9°C° 0 mm 3 mps 748 mmHg 90%
05:00 +8°C° 0 mm 3 mps 748 mmHg 90%
06:00 +10°C° 0 mm 3 mps 748 mmHg 82%
07:00 +12°C° 0 mm 4 mps 748 mmHg 74%
08:00 +14°C° 0 mm 4 mps 748 mmHg 64%
09:00 +15°C° 0 mm 4 mps 748 mmHg 60%
10:00 +17°C° 0 mm 4 mps 748 mmHg 56%
11:00 +17°C° 0 mm 4 mps 748 mmHg 52%
12:00 +17°C° 0 mm 4 mps 748 mmHg 53%
13:00 +17°C° 0 mm 4 mps 748 mmHg 54%
14:00 +17°C° 0 mm 3 mps 749 mmHg 56%
15:00 +17°C° 0 mm 3 mps 748 mmHg 59%
16:00 +16°C° 0 mm 3 mps 748 mmHg 62%
17:00 +16°C° 0 mm 3 mps 748 mmHg 65%
18:00 +14°C° 0 mm 3 mps 748 mmHg 68%
19:00 +14°C° 0 mm 2 mps 748 mmHg 70%
20:00 +13°C° 0 mm 2 mps 749 mmHg 73%
21:00 +12°C° 0 mm 2 mps 749 mmHg 77%
22:00 +12°C° 0 mm 2 mps 749 mmHg 81%
23:00 +10°C° 0 mm 2 mps 749 mmHg 85%

Tomorrow, 14 August, Friday

Time Temperature Precipitation Wind Pressure Humidity
00:00 +9°C° 0 mm 2 mps 749 mmHg 88%
01:00 +8°C° 0 mm 2 mps 749 mmHg 91%
02:00 +7°C° 0 mm 2 mps 749 mmHg 95%
03:00 +7°C° 0 mm 2 mps 749 mmHg 95%
04:00 +7°C° 0 mm 2 mps 749 mmHg 95%
05:00 +7°C° 0 mm 2 mps 749 mmHg 96%
06:00 +9°C° 0 mm 2 mps 750 mmHg 88%
07:00 +12°C° 0 mm 2 mps 750 mmHg 80%
08:00 +14°C° 0 mm 2 mps 750 mmHg 72%
09:00 +14°C° 0 mm 3 mps 750 mmHg 66%
10:00 +17°C° 0 mm 3 mps 750 mmHg 59%
11:00 +18°C° 0 mm 3 mps 750 mmHg 53%
12:00 +18°C° 0 mm 3 mps 749 mmHg 52%
13:00 +19°C° 0 mm 3 mps 749 mmHg 52%
14:00 +19°C° 0 mm 3 mps 749 mmHg 52%
15:00 +19°C° 0 mm 2 mps 749 mmHg 54%
16:00 +18°C° 0 mm 2 mps 749 mmHg 57%
17:00 +18°C° 0 mm 2 mps 749 mmHg 60%
18:00 +16°C° 0 mm 1 mps 749 mmHg 66%
19:00 +14°C° 0 mm 1 mps 749 mmHg 71%
20:00 +13°C° 0 mm 1 mps 749 mmHg 77%
21:00 +12°C° 0 mm 1 mps 750 mmHg 77%
22:00 +12°C° 0 mm 1 mps 750 mmHg 76%
23:00 +12°C° 0 mm 1 mps 750 mmHg 76%

Day after tomorrow, 15 August, Saturday

Time Temperature Precipitation Wind Pressure Humidity
00:00 +12°C° 0 mm 1 mps 750 mmHg 79%
01:00 +11°C° 0 mm 1 mps 750 mmHg 81%
02:00 +11°C° 0 mm 1 mps 750 mmHg 84%
03:00 +11°C° 0 mm 1 mps 750 mmHg 84%
04:00 +11°C° 0 mm 1 mps 750 mmHg 84%
05:00 +11°C° 0 mm 1 mps 750 mmHg 84%
06:00 +13°C° 0 mm 1 mps 750 mmHg 79%
07:00 +14°C° 0 mm 1 mps 750 mmHg 75%
08:00 +16°C° 0 mm 1 mps 750 mmHg 70%
09:00 +16°C° 0.1 mm 1 mps 750 mmHg 71%
10:00 +17°C° 0.1 mm 2 mps 750 mmHg 71%
11:00 +18°C° 0.1 mm 2 mps 750 mmHg 72%
12:00 +17°C° 0.2 mm 2 mps 749 mmHg 76%
13:00 +18°C° 0.2 mm 1 mps 749 mmHg 80%
14:00 +18°C° 0.2 mm 1 mps 749 mmHg 85%
15:00 +16°C° 0 mm 1 mps 749 mmHg 87%
16:00 +16°C° 0 mm 1 mps 749 mmHg 89%
17:00 +16°C° 0 mm 1 mps 748 mmHg 92%
18:00 +16°C° 0 mm 1 mps 748 mmHg 92%
19:00 +15°C° 0 mm 1 mps 748 mmHg 93%
20:00 +15°C° 0 mm 1 mps 748 mmHg 94%
21:00 +15°C° 0 mm 1 mps 748 mmHg 93%
22:00 +15°C° 0 mm 1 mps 748 mmHg 93%
23:00 +15°C° 0 mm 1 mps 748 mmHg 93%

16 August, Sunday

Time Temperature Precipitation Wind Pressure Humidity
00:00 +15°C° 0 mm 1 mps 748 mmHg 93%
01:00 +15°C° 0 mm 2 mps 747 mmHg 94%
02:00 +14°C° 0 mm 2 mps 747 mmHg 94%
03:00 +14°C° 0 mm 2 mps 747 mmHg 95%
04:00 +14°C° 0 mm 2 mps 747 mmHg 95%
05:00 +14°C° 0 mm 2 mps 746 mmHg 96%
06:00 +16°C° 0 mm 2 mps 746 mmHg 92%
07:00 +17°C° 0 mm 2 mps 746 mmHg 88%
08:00 +19°C° 0 mm 2 mps 746 mmHg 85%
09:00 +20°C° 0.2 mm 3 mps 746 mmHg 79%
10:00 +22°C° 0.2 mm 3 mps 746 mmHg 72%
11:00 +24°C° 0.2 mm 3 mps 746 mmHg 66%
12:00 +25°C° 0.3 mm 4 mps 746 mmHg 65%
13:00 +25°C° 0.3 mm 4 mps 746 mmHg 63%
14:00 +26°C° 0.3 mm 4 mps 746 mmHg 62%
15:00 +25°C° 0.1 mm 4 mps 746 mmHg 64%
16:00 +25°C° 0.1 mm 3 mps 746 mmHg 66%
17:00 +24°C° 0.1 mm 2 mps 745 mmHg 69%
18:00 +21°C° 0 mm 2 mps 745 mmHg 75%
19:00 +20°C° 0 mm 2 mps 746 mmHg 81%
20:00 +18°C° 0 mm 2 mps 746 mmHg 88%
21:00 +17°C° 0 mm 2 mps 746 mmHg 89%
22:00 +17°C° 0 mm 2 mps 746 mmHg 91%
23:00 +16°C° 0 mm 3 mps 745 mmHg 92%

17 August, Monday

Time Temperature Precipitation Wind Pressure Humidity
00:00 +16°C° 0 mm 3 mps 745 mmHg 93%
01:00 +16°C° 0 mm 3 mps 745 mmHg 93%
02:00 +16°C° 0 mm 3 mps 745 mmHg 94%
03:00 +16°C° 0.2 mm 3 mps 745 mmHg 95%
04:00 +16°C° 0.2 mm 2 mps 745 mmHg 96%
05:00 +16°C° 0.2 mm 2 mps 745 mmHg 97%
06:00 +16°C° 0.3 mm 2 mps 745 mmHg 94%
07:00 +17°C° 0.3 mm 2 mps 745 mmHg 92%
08:00 +18°C° 0.3 mm 2 mps 745 mmHg 90%
09:00 +20°C° 0.4 mm 2 mps 745 mmHg 85%
10:00 +21°C° 0.4 mm 2 mps 745 mmHg 80%
11:00 +23°C° 0.4 mm 2 mps 745 mmHg 75%
12:00 +24°C° 0.4 mm 3 mps 745 mmHg 71%
13:00 +24°C° 0.4 mm 3 mps 745 mmHg 68%
14:00 +25°C° 0.4 mm 3 mps 745 mmHg 64%
15:00 +24°C° 0.4 mm 3 mps 744 mmHg 70%
16:00 +22°C° 0.4 mm 3 mps 744 mmHg 77%
17:00 +21°C° 0.4 mm 2 mps 744 mmHg 83%
18:00 +20°C° 0 mm 2 mps 744 mmHg 86%
19:00 +19°C° 0 mm 1 mps 744 mmHg 89%
20:00 +18°C° 0 mm 1 mps 744 mmHg 92%
21:00 +16°C° 0 mm 1 mps 744 mmHg 92%
22:00 +15°C° 0 mm 1 mps 744 mmHg 92%
23:00 +15°C° 0 mm 1 mps 744 mmHg 91%

18 August, Tuesday

Time Temperature Precipitation Wind Pressure Humidity
00:00 +14°C° 0 mm 1 mps 744 mmHg 91%
01:00 +13°C° 0 mm 1 mps 744 mmHg 91%
02:00 +13°C° 0 mm 1 mps 744 mmHg 91%
03:00 +12°C° 0 mm 1 mps 744 mmHg 91%
04:00 +12°C° 0 mm 1 mps 744 mmHg 92%
05:00 +11°C° 0 mm 1 mps 744 mmHg 93%
06:00 +13°C° 0 mm 1 mps 744 mmHg 86%
07:00 +14°C° 0 mm 1 mps 744 mmHg 80%
08:00 +16°C° 0 mm 1 mps 744 mmHg 74%
09:00 +19°C° 0 mm 1 mps 744 mmHg 67%
10:00 +20°C° 0 mm 1 mps 744 mmHg 59%
11:00 +22°C° 0 mm 1 mps 744 mmHg 52%
12:00 +23°C° 0 mm 1 mps 744 mmHg 49%
13:00 +23°C° 0 mm 1 mps 743 mmHg 46%
14:00 +24°C° 0 mm 1 mps 743 mmHg 44%
15:00 +23°C° 0 mm 1 mps 743 mmHg 49%
16:00 +23°C° 0 mm 1 mps 743 mmHg 54%
17:00 +20°C° 0 mm 0 mps 743 mmHg 59%
18:00 +18°C° 0 mm 0 mps 743 mmHg 63%
19:00 +16°C° 0 mm 0 mps 743 mmHg 67%
20:00 +14°C° 0 mm 0 mps 743 mmHg 71%
21:00 +14°C° 0 mm 1 mps 743 mmHg 73%
22:00 +14°C° 0 mm 1 mps 743 mmHg 75%
23:00 +13°C° 0 mm 1 mps 744 mmHg 77%
Show more